Trail Valley, Northwest Territories

10:18 PM MST on December 03, 2016 (GMT -0700)
Trail Valley

Weather History for CXTV - January, 2013

Change the Weather History Date:

Tuesday, January 29, 2013

  Actual Average (CYEV) Record (CYEV)
Temperature  
Mean Temperature -22 °F -  
Max Temperature -19 °F -6 °F 14 °F (2007)
Min Temperature -25 °F -18 °F -43 °F (2006)
Degree Days  
Heating Degree Days 87    
Moisture  
Dew Point -29 °F    
Average Humidity 73    
Maximum Humidity 76    
Minimum Humidity 60    
Precipitation  
Precipitation 0.36 in - - ()
Sea Level Pressure  
Sea Level Pressure 30.41 in    
Wind  
Wind Speed 8 mph ()    
Max Wind Speed 15 mph    
Max Gust Speed 24 mph    
Averages and records for this station are not official NWS values.
T = Trace of Precipitation, MM = Missing Value Source: Averaged Metar Reports

Daily Weather History Graph

Daily Weather History Graph

Search for Another Location

Airport or City:

Trip Planner

Search our weather history database for the weather conditions in past years. The results will help you decide how hot, cold, wet, or windy it might be!

Date:

Astronomy

Jan. 29, 2013 Rise Set
Actual Time 11:32 AM MST 4:43 PM MST
Civil Twilight 10:12 AM MST 6:03 PM MST
Nautical Twilight 8:58 AM MST 7:17 PM MST
Astronomical Twilight 7:50 AM MST 8:25 PM MST
Moon 10:05 PM MST (1/29) 10:29 AM MST (1/29)
Length of Visible Light 7h 50m
Length of Day
5h 11m
Waning Gibbous, 93% of the Moon is Illuminated
Jan 29
Waning Gibbous
Feb 3
Last Quarter
Feb 10
New
Feb 17
First Quarter
Feb 25
Full

Hourly Weather History & Observations

Time (MST) Temp. Windchill Dew Point Humidity Pressure Visibility Wind Dir Wind Speed Gust Speed Precip Events Conditions
12:00 AM -23.8 °F -46.9 °F -29.7 °F 74% 30.59 in - WNW 11.5 mph - N/A   Unknown
1:00 AM -25.2 °F -44.9 °F -31.4 °F 73% 30.58 in - West 8.1 mph - N/A   Unknown
2:00 AM -24.7 °F -44.3 °F -30.6 °F 74% 30.57 in - West 8.1 mph - N/A   Unknown
3:00 AM -24.7 °F -42.7 °F -30.6 °F 74% 30.56 in - West 6.9 mph - N/A   Unknown
4:00 AM -24.0 °F -46.0 °F -29.9 °F 74% 30.55 in - West 10.4 mph - N/A   Unknown
5:00 AM -24 °F - -30 °F 61% 30.52 in - West 5.8 mph - -  
5:00 AM -23.6 °F -39.6 °F -29.6 °F 74% 30.52 in - West 5.8 mph - N/A   Unknown
6:00 AM -22.2 °F -39.7 °F -27.9 °F 75% 30.50 in - West 6.9 mph - N/A   Unknown
7:00 AM -22.5 °F -38.3 °F -28.3 °F 75% 30.48 in - WNW 5.8 mph - N/A   Unknown
8:00 AM -22.0 °F -41.0 °F -27.8 °F 75% 30.46 in - West 8.1 mph - N/A   Unknown
9:00 AM -23.1 °F -44.9 °F -28.8 °F 74% 30.43 in - West 10.4 mph - N/A   Unknown
10:00 AM -20.4 °F -45.5 °F -26.0 °F 75% 30.40 in - SW 15.0 mph - N/A   Unknown
11:00 AM -19 °F - -25 °F 62% 30.38 in - SW 13.8 mph - -  
11:00 AM -19.3 °F -43.2 °F -24.7 °F 76% 30.38 in - SW 13.8 mph 24.2 mph N/A   Unknown
12:00 PM -21.1 °F -38.4 °F -26.7 °F 75% 30.38 in - WNW 6.9 mph - N/A   Unknown
1:00 PM -22.4 °F -44.0 °F -28.5 °F 73% 30.37 in - WSW 10.4 mph - N/A   Unknown
2:00 PM -22.2 °F -42.6 °F -27.9 °F 75% 30.35 in - West 9.2 mph - N/A   Unknown
3:00 PM -20.7 °F -42.0 °F -26.5 °F 75% 30.34 in - WSW 10.4 mph - N/A   Unknown
4:00 PM -21.6 °F -39.0 °F -27.4 °F 75% 30.33 in - North 6.9 mph - N/A   Unknown
5:00 PM -22 °F - -27 °F 64% 30.32 in - ENE 1.2 mph - -  
5:00 PM -21.6 °F - -27.2 °F 75% 30.32 in - ENE 1.2 mph - N/A   Unknown
6:00 PM -22.4 °F - -28.1 °F 75% 30.32 in - SE 2.3 mph - N/A   Unknown
7:00 PM -24.2 °F - -29.9 °F 74% 30.32 in - ESE 2.3 mph - N/A   Unknown
8:00 PM -23.8 °F -48.9 °F -29.7 °F 74% 30.30 in - SSW 13.8 mph - N/A   Unknown
9:00 PM -24.0 °F -48.2 °F -29.7 °F 74% 30.30 in - SSW 12.7 mph - N/A   Unknown
10:00 PM -24.5 °F -45.4 °F -30.5 °F 74% 30.29 in - SSW 9.2 mph - N/A   Unknown
11:00 PM -25 °F - -31 °F 60% 30.30 in - SSW 10.4 mph - -